STARLINK-3868 (52649 NORAD) Tracking and Keplerian Element Data
This shows tracking and keplerian element data for the satellite.
Feedback or suggestion? Click here.
Element | Value |
Catalog | 52649 |
Name | STARLINK-3868 |
Epoch Orbit | 130 |
Epoch Day | 167.08334491 |
Epoch Year | 2022 |
RAAN | 279.9825 |
Inclination | 53.214 |
Eccentricity | 0.0001904 |
Argument of Perigee | 26.9207 |
Mean Anonmoly | 18.705 |
Mean Motion | 15.73235562 |
Decay Rate | -0.0002345 |
L1 | 1 52649U 22052BD 22167.08334491 -.00023450 00000+0 -16286-3 0 9998 |
L2 | 2 52649 53.2140 279.9825 0001904 26.9207 18.7050 15.73235562 1309 |
Live tracking and technical data element details for STARLINK-3868 (NORAD 52649). STARLINK-3868 can be tracked NOW for your location showing map with azimuth and elevation plus other details from your city location.
Track the satellite on the map from your city or location and see movement details for azimuth, elevation, latitude, longitude, range, height, and movement on the map or in text.
IsCatalogInMostPopularTable: catalog: 52649, numindb: 1
Update: records affected: 1
GetName: 52649 STARLINK-3868
Hit Count: updated at: Sat, 25 Jun 2022 04:43:02 GMT